Weather in Barcelona

Spain     41°23′13″N   2°10′12″E
temp.,
°C
wind,
m/s
gust,
m/s
humid.,
%
clouds,
%
prec.,
mm/h
press.,
hPa
HPBL,
m
8 may, sat
sat823:00+16ese118322 0.0 1020225
02:00+15ne11846 0.0 101989
05:00+15nne11845 0.0 101823
08:00+16nnw11775 0.0 101874
11:00+20s23570 0.0 1018512
14:00+22s45525 0.0 1016753
17:00+22s465520 0.0 1015694
20:00+20s3464100 0.0 1014376
9 may, sun
sun923:00+18sse1177100 0.0 1014133
02:00+17ne1176100 0.0 101338
05:00+16ene2279100 0.0 101267
08:00+16ene3578100 0.0 1011225
11:00+19ene7106497 0.0 1009597
14:00+20e6767100 0.0 1008681
17:00+20e566893 0.0 1006536
20:00+18s2281100 0.4 1006300
10 may, mon
mon1023:00+17sw339099 1.3 1009131
02:00+17wnw22862 1.5 100831
05:00+16nw2279100 0.0 100838
08:00+16sw2371100 0.0 101096
11:00+17sw346099 0.0 1010493
14:00+21s564817 0.0 10091753
17:00+20ssw785084 0.0 10081104
20:00+18ssw585332 0.0 1009903
11 may, tue
tue1123:00+17sw2461100 0.1 1010486
02:00+15n117765 1.6 100961
05:00+14nw23788 0.2 100896
08:00+14wnw49665 0.2 1009543
11:00+17w68455 0.0 10091355
14:00+20w911315 0.1 10092016
17:00+21w10112588 0.0 10092620
20:00+15ese546096 0.1 1013394
12 may, wed
wed1223:00+12ne33740 0.1 1016291
02:00+12ne22750 0.1 1017191
05:00+12nw12620 0.0 1018172
08:00+12nw12550 0.0 1018277
11:00+16s11370 0.0 1018855
14:00+18sse44375 0.0 10171391
17:00+18sse664337 0.0 1016851
20:00+18ssw58450 0.0 1014688